Time,TemperatureF,DewpointF,PressureIn,WindDirection,WindDirectionDegrees,WindSpeedMPH,WindSpeedGustMPH,Humidity,HourlyPrecipIn,Conditions,Clouds,dailyrainin,SoftwareType,DateUTC
2013-07-16 00:01:00,78.3,51.6,30.13,WNW,289,0.0,4.0,82,0.00,,,0.00,meteohub,2013-07-16 04:01:00,
2013-07-16 00:02:00,78.3,52.2,30.13,WNW,289,0.0,4.0,82,0.00,,,0.00,meteohub,2013-07-16 04:02:00,
2013-07-16 00:07:00,78.1,53.1,30.13,WNW,290,0.0,4.0,83,0.00,,,0.00,meteohub,2013-07-16 04:07:00,
2013-07-16 00:12:00,77.7,53.2,30.13,WNW,289,0.0,4.0,84,0.00,,,0.00,meteohub,2013-07-16 04:12:00,
2013-07-16 00:17:00,77.5,52.5,30.13,WNW,289,0.0,3.0,84,0.00,,,0.00,meteohub,2013-07-16 04:17:00,
2013-07-16 00:22:00,77.2,52.0,30.13,WNW,288,1.0,0.0,85,0.00,,,0.00,meteohub,2013-07-16 04:22:00,
2013-07-16 00:27:00,77.2,51.1,30.13,WNW,288,0.0,1.0,86,0.00,,,0.00,meteohub,2013-07-16 04:27:00,
2013-07-16 00:32:00,77.0,50.4,30.12,WNW,288,0.0,1.0,86,0.00,,,0.00,meteohub,2013-07-16 04:32:00,
2013-07-16 00:37:00,76.8,51.6,30.13,WNW,289,0.0,3.0,87,0.00,,,0.00,meteohub,2013-07-16 04:37:00,
2013-07-16 00:42:00,76.6,53.4,30.13,WNW,289,0.0,3.0,87,0.00,,,0.00,meteohub,2013-07-16 04:42:00,
2013-07-16 00:47:00,76.6,54.1,30.13,WNW,290,0.0,5.0,88,0.00,,,0.00,meteohub,2013-07-16 04:47:00,
2013-07-16 00:52:00,76.5,54.9,30.13,WNW,288,0.0,5.0,88,0.00,,,0.00,meteohub,2013-07-16 04:52:00,
2013-07-16 00:57:00,76.3,53.8,30.13,WNW,288,0.0,5.0,88,0.00,,,0.00,meteohub,2013-07-16 04:57:00,
2013-07-16 01:02:00,76.3,52.5,30.13,WNW,290,0.0,5.0,89,0.00,,,0.00,meteohub,2013-07-16 05:02:00,
2013-07-16 01:07:00,76.5,51.8,30.12,WNW,294,4.0,5.0,89,0.00,,,0.00,meteohub,2013-07-16 05:07:00,
2013-07-16 01:12:00,76.6,51.6,30.12,WNW,302,0.0,6.0,88,0.00,,,0.00,meteohub,2013-07-16 05:12:00,
2013-07-16 01:17:00,76.6,51.6,30.13,NW,305,3.0,6.0,88,0.00,,,0.00,meteohub,2013-07-16 05:17:00,
2013-07-16 01:22:00,76.6,53.4,30.12,WNW,303,0.0,6.0,88,0.00,,,0.00,meteohub,2013-07-16 05:22:00,
2013-07-16 01:27:00,76.6,54.0,30.12,WNW,302,0.0,6.0,89,0.00,,,0.00,meteohub,2013-07-16 05:27:00,
2013-07-16 01:32:00,76.5,55.2,30.12,WNW,303,0.0,6.0,89,0.00,,,0.00,meteohub,2013-07-16 05:32:00,
2013-07-16 01:37:00,76.3,54.9,30.12,WNW,303,0.0,0.0,89,0.00,,,0.00,meteohub,2013-07-16 05:37:00,
2013-07-16 01:42:00,76.1,53.6,30.12,NW,304,0.0,4.0,89,0.00,,,0.00,meteohub,2013-07-16 05:42:00,
2013-07-16 01:47:00,75.9,53.1,30.12,NW,304,0.0,4.0,88,0.00,,,0.00,meteohub,2013-07-16 05:47:00,
2013-07-16 01:52:00,76.1,52.2,30.12,WNW,301,0.0,0.0,88,0.00,,,0.00,meteohub,2013-07-16 05:52:00,
2013-07-16 01:57:00,76.3,52.2,30.12,WNW,302,3.0,6.0,87,0.00,,,0.00,meteohub,2013-07-16 05:57:00,
2013-07-16 02:02:00,76.3,53.8,30.12,WNW,296,5.0,6.0,87,0.00,,,0.00,meteohub,2013-07-16 06:02:00,
2013-07-16 02:07:00,76.3,54.5,30.12,WNW,297,5.0,7.0,87,0.00,,,0.00,meteohub,2013-07-16 06:07:00,
2013-07-16 02:12:00,76.1,55.8,30.12,WNW,292,0.0,7.0,86,0.00,,,0.00,meteohub,2013-07-16 06:12:00,
2013-07-16 02:17:00,75.9,55.8,30.12,WNW,298,0.0,7.0,86,0.00,,,0.00,meteohub,2013-07-16 06:17:00,
2013-07-16 02:22:00,75.9,54.7,30.12,WNW,295,2.0,7.0,86,0.00,,,0.00,meteohub,2013-07-16 06:22:00,
2013-07-16 02:27:00,75.7,53.6,30.12,WNW,296,0.0,6.0,87,0.00,,,0.00,meteohub,2013-07-16 06:27:00,
2013-07-16 02:32:00,75.7,52.9,30.12,WNW,299,7.0,7.0,87,0.00,,,0.00,meteohub,2013-07-16 06:32:00,
2013-07-16 02:37:00,75.9,52.2,30.12,WNW,297,0.0,7.0,86,0.00,,,0.00,meteohub,2013-07-16 06:37:00,
2013-07-16 02:42:00,76.1,53.1,30.12,NW,306,1.0,7.0,86,0.00,,,0.00,meteohub,2013-07-16 06:42:00,
2013-07-16 02:47:00,76.1,54.3,30.12,WNW,302,0.0,7.0,86,0.00,,,0.00,meteohub,2013-07-16 06:47:00,
2013-07-16 02:52:00,75.9,55.6,30.12,WNW,300,1.0,8.0,86,0.00,,,0.00,meteohub,2013-07-16 06:52:00,
2013-07-16 02:57:00,75.7,56.1,30.12,WNW,298,3.0,8.0,87,0.00,,,0.00,meteohub,2013-07-16 06:57:00,
2013-07-16 03:02:00,75.7,55.8,30.12,NW,306,2.0,7.0,87,0.00,,,0.00,meteohub,2013-07-16 07:02:00,
2013-07-16 03:07:00,75.7,54.5,30.12,NW,306,5.0,6.0,87,0.00,,,0.00,meteohub,2013-07-16 07:07:00,
2013-07-16 03:12:00,75.7,53.2,30.12,NW,304,6.0,6.0,87,0.00,,,0.00,meteohub,2013-07-16 07:12:00,
2013-07-16 03:17:00,75.7,52.7,30.12,NW,304,0.0,6.0,87,0.00,,,0.00,meteohub,2013-07-16 07:17:00,
2013-07-16 03:22:00,75.6,54.3,30.12,NW,304,2.0,6.0,87,0.00,,,0.00,meteohub,2013-07-16 07:22:00,
2013-07-16 03:27:00,75.4,55.0,30.12,NW,304,2.0,7.0,87,0.00,,,0.00,meteohub,2013-07-16 07:27:00,
2013-07-16 03:32:00,75.2,56.7,30.12,NW,308,4.0,7.0,87,0.00,,,0.00,meteohub,2013-07-16 07:32:00,
2013-07-16 03:37:00,75.4,56.7,30.12,NW,304,3.0,8.0,87,0.00,,,0.00,meteohub,2013-07-16 07:37:00,
2013-07-16 03:42:00,75.4,55.0,30.12,WNW,297,5.0,8.0,87,0.00,,,0.00,meteohub,2013-07-16 07:42:00,
2013-07-16 03:47:00,75.4,54.0,30.12,NW,306,0.0,8.0,86,0.00,,,0.00,meteohub,2013-07-16 07:47:00,
2013-07-16 03:53:00,75.4,53.2,30.11,NW,307,0.0,8.0,86,0.00,,,0.00,meteohub,2013-07-16 07:53:00,
2013-07-16 03:58:00,75.6,54.3,30.12,NW,323,1.0,7.0,86,0.00,,,0.00,meteohub,2013-07-16 07:58:00,
2013-07-16 04:03:00,75.6,55.4,30.12,NW,313,0.0,9.0,85,0.00,,,0.00,meteohub,2013-07-16 08:03:00,
2013-07-16 04:08:00,75.6,56.1,30.12,NW,308,2.0,9.0,85,0.00,,,0.00,meteohub,2013-07-16 08:08:00,
2013-07-16 04:13:00,75.6,57.0,30.12,NW,317,1.0,9.0,85,0.00,,,0.00,meteohub,2013-07-16 08:13:00,
2013-07-16 04:18:00,75.4,56.7,30.12,NE,54,1.0,8.0,85,0.00,,,0.00,meteohub,2013-07-16 08:18:00,
2013-07-16 04:23:00,75.2,55.0,30.12,NW,315,0.0,8.0,85,0.00,,,0.00,meteohub,2013-07-16 08:23:00,
2013-07-16 04:28:00,75.0,53.8,30.12,NW,310,1.0,5.0,85,0.00,,,0.00,meteohub,2013-07-16 08:28:00,
2013-07-16 04:33:00,74.8,53.6,30.12,NW,314,2.0,6.0,85,0.00,,,0.00,meteohub,2013-07-16 08:33:00,
2013-07-16 04:38:00,74.8,54.9,30.12,NW,315,0.0,6.0,85,0.00,,,0.00,meteohub,2013-07-16 08:38:00,
2013-07-16 04:43:00,74.8,55.9,30.12,NW,320,2.0,6.0,85,0.00,,,0.00,meteohub,2013-07-16 08:43:00,
2013-07-16 04:48:00,74.8,56.5,30.12,NW,318,2.0,6.0,85,0.00,,,0.00,meteohub,2013-07-16 08:48:00,
2013-07-16 04:53:00,74.7,57.7,30.12,NW,326,0.0,7.0,85,0.00,,,0.00,meteohub,2013-07-16 08:53:00,
2013-07-16 04:58:00,74.5,57.2,30.12,NNW,329,0.0,7.0,85,0.00,,,0.00,meteohub,2013-07-16 08:58:00,
2013-07-16 05:03:00,74.5,55.6,30.12,NW,325,1.0,7.0,85,0.00,,,0.00,meteohub,2013-07-16 09:03:00,
2013-07-16 05:08:00,74.5,54.5,30.12,NW,323,4.0,7.0,85,0.00,,,0.00,meteohub,2013-07-16 09:08:00,
2013-07-16 05:13:00,74.3,53.2,30.12,NW,322,2.0,7.0,85,0.00,,,0.00,meteohub,2013-07-16 09:13:00,
2013-07-16 05:18:00,74.1,54.3,30.12,NW,324,0.0,6.0,86,0.00,,,0.00,meteohub,2013-07-16 09:18:00,
2013-07-16 05:23:00,73.9,55.4,30.12,NW,324,0.0,6.0,86,0.00,,,0.00,meteohub,2013-07-16 09:23:00,
2013-07-16 05:28:00,73.8,56.1,30.13,NW,319,1.0,6.0,86,0.00,,,0.00,meteohub,2013-07-16 09:28:00,
2013-07-16 05:33:00,73.8,57.0,30.13,NW,321,0.0,7.0,87,0.00,,,0.00,meteohub,2013-07-16 09:33:00,
2013-07-16 05:38:00,73.6,57.7,30.13,NW,321,1.0,7.0,87,0.00,,,0.00,meteohub,2013-07-16 09:38:00,
2013-07-16 05:43:00,73.4,56.7,30.13,NE,54,0.0,7.0,87,0.00,,,0.00,meteohub,2013-07-16 09:43:00,
2013-07-16 05:48:00,73.4,55.0,30.13,NNW,329,0.0,5.0,87,0.00,,,0.00,meteohub,2013-07-16 09:48:00,
2013-07-16 05:53:00,73.6,54.0,30.13,NNW,329,1.0,5.0,87,0.00,,,0.00,meteohub,2013-07-16 09:53:00,
2013-07-16 05:58:00,73.6,52.7,30.13,NW,322,1.0,4.0,87,0.00,,,0.00,meteohub,2013-07-16 09:58:00,
2013-07-16 06:03:00,73.6,54.3,30.13,NW,322,5.0,7.0,87,0.00,,,0.00,meteohub,2013-07-16 10:03:00,
2013-07-16 06:08:00,73.6,55.6,30.13,NNW,333,2.0,7.0,87,0.00,,,0.00,meteohub,2013-07-16 10:08:00,
2013-07-16 06:13:00,73.6,56.1,30.14,NNW,329,1.0,6.0,87,0.00,,,0.00,meteohub,2013-07-16 10:13:00,
2013-07-16 06:18:00,73.6,56.8,30.14,NNW,329,2.0,8.0,86,0.00,,,0.00,meteohub,2013-07-16 10:18:00,
2013-07-16 06:23:00,73.6,56.5,30.14,NNW,333,1.0,8.0,86,0.00,,,0.00,meteohub,2013-07-16 10:23:00,
2013-07-16 06:28:00,73.8,55.4,30.14,NNW,340,3.0,8.0,86,0.00,,,0.00,meteohub,2013-07-16 10:28:00,
2013-07-16 06:33:00,73.8,55.4,30.14,NNW,335,0.0,8.0,86,0.00,,,0.00,meteohub,2013-07-16 10:33:00,
2013-07-16 06:38:00,73.9,56.1,30.14,NNW,335,0.0,6.0,86,0.00,,,0.00,meteohub,2013-07-16 10:38:00,
2013-07-16 06:43:00,74.1,56.7,30.14,NNW,335,5.0,6.0,85,0.00,,,0.00,meteohub,2013-07-16 10:43:00,
2013-07-16 06:48:00,74.5,56.8,30.14,NNW,338,2.0,10.0,85,0.00,,,0.00,meteohub,2013-07-16 10:48:00,
2013-07-16 06:53:00,74.7,56.8,30.14,NNW,330,4.0,10.0,84,0.00,,,0.00,meteohub,2013-07-16 10:53:00,
2013-07-16 06:58:00,74.7,57.0,30.15,NNW,341,0.0,10.0,84,0.00,,,0.00,meteohub,2013-07-16 10:58:00,
2013-07-16 07:03:00,74.7,57.0,30.15,NNW,342,1.0,6.0,84,0.00,,,0.00,meteohub,2013-07-16 11:03:00,
2013-07-16 07:08:00,74.7,57.2,30.14,NNW,338,0.0,5.0,84,0.00,,,0.00,meteohub,2013-07-16 11:08:00,
2013-07-16 07:14:00,75.0,57.9,30.15,NNW,329,0.0,5.0,84,0.00,,,0.00,meteohub,2013-07-16 11:14:00,
2013-07-16 07:19:00,75.0,58.6,30.15,NNW,343,1.0,6.0,83,0.00,,,0.00,meteohub,2013-07-16 11:19:00,
2013-07-16 07:24:00,74.8,59.2,30.15,NNW,338,1.0,8.0,83,0.00,,,0.00,meteohub,2013-07-16 11:24:00,
2013-07-16 07:29:00,74.8,59.4,30.15,NNW,346,0.0,8.0,84,0.00,,,0.00,meteohub,2013-07-16 11:29:00,
2013-07-16 07:34:00,74.8,60.1,30.15,NW,321,0.0,7.0,84,0.00,,,0.00,meteohub,2013-07-16 11:34:00,
2013-07-16 07:39:00,74.8,58.6,30.15,NW,315,2.0,6.0,84,0.00,,,0.00,meteohub,2013-07-16 11:39:00,
2013-07-16 07:44:00,75.0,57.6,30.15,WNW,302,2.0,6.0,83,0.00,,,0.00,meteohub,2013-07-16 11:44:00,
2013-07-16 07:49:00,75.7,56.3,30.15,NW,308,0.0,6.0,81,0.00,,,0.00,meteohub,2013-07-16 11:49:00,
2013-07-16 07:54:00,76.5,55.0,30.15,NNW,331,1.0,6.0,81,0.00,,,0.00,meteohub,2013-07-16 11:54:00,
2013-07-16 07:59:00,76.8,54.3,30.15,NW,310,0.0,8.0,80,0.00,,,0.00,meteohub,2013-07-16 11:59:00,
2013-07-16 08:04:00,76.6,53.8,30.15,NW,308,1.0,8.0,80,0.00,,,0.00,meteohub,2013-07-16 12:04:00,
2013-07-16 08:09:00,76.8,52.9,30.15,NW,311,1.0,7.0,81,0.00,,,0.00,meteohub,2013-07-16 12:09:00,
2013-07-16 08:14:00,76.6,52.9,30.16,WNW,302,1.0,7.0,81,0.00,,,0.00,meteohub,2013-07-16 12:14:00,
2013-07-16 08:19:00,76.6,52.2,30.16,WNW,285,2.0,7.0,81,0.00,,,0.00,meteohub,2013-07-16 12:19:00,
2013-07-16 08:24:00,76.6,52.2,30.16,WNW,298,5.0,6.0,82,0.00,,,0.00,meteohub,2013-07-16 12:24:00,
2013-07-16 08:29:00,76.8,52.0,30.16,WNW,294,6.0,6.0,82,0.00,,,0.00,meteohub,2013-07-16 12:29:00,
2013-07-16 08:34:00,77.2,52.0,30.16,NW,311,1.0,7.0,82,0.00,,,0.00,meteohub,2013-07-16 12:34:00,
2013-07-16 08:39:00,77.5,51.8,30.16,NW,308,1.0,8.0,81,0.00,,,0.00,meteohub,2013-07-16 12:39:00,
2013-07-16 08:44:00,77.4,51.8,30.16,NW,309,3.0,9.0,81,0.00,,,0.00,meteohub,2013-07-16 12:44:00,
2013-07-16 08:49:00,77.2,51.1,30.16,WNW,298,2.0,9.0,81,0.00,,,0.00,meteohub,2013-07-16 12:49:00,
2013-07-16 08:54:00,77.4,53.6,30.16,NW,306,2.0,10.0,81,0.00,,,0.00,meteohub,2013-07-16 12:54:00,
2013-07-16 08:59:00,77.9,55.0,30.16,WNW,299,8.0,10.0,80,0.00,,,0.00,meteohub,2013-07-16 12:59:00,
2013-07-16 09:04:00,78.1,55.8,30.16,NW,307,4.0,10.0,79,0.00,,,0.00,meteohub,2013-07-16 13:04:00,
2013-07-16 09:09:00,78.1,56.5,30.16,WNW,299,2.0,8.0,79,0.00,,,0.00,meteohub,2013-07-16 13:09:00,
2013-07-16 09:14:00,78.4,56.7,30.16,NW,318,2.0,9.0,78,0.00,,,0.00,meteohub,2013-07-16 13:14:00,
2013-07-16 09:19:00,78.8,57.4,30.16,NW,309,4.0,9.0,78,0.00,,,0.00,meteohub,2013-07-16 13:19:00,
2013-07-16 09:24:00,78.8,57.6,30.16,WNW,293,3.0,9.0,79,0.00,,,0.00,meteohub,2013-07-16 13:24:00,
2013-07-16 09:29:00,78.8,58.3,30.16,WNW,296,8.0,8.0,78,0.00,,,0.00,meteohub,2013-07-16 13:29:00,
2013-07-16 09:34:00,79.2,58.3,30.15,WNW,297,4.0,9.0,78,0.00,,,0.00,meteohub,2013-07-16 13:34:00,
2013-07-16 09:39:00,79.7,58.5,30.15,WNW,296,3.0,9.0,76,0.00,,,0.00,meteohub,2013-07-16 13:39:00,
2013-07-16 09:44:00,80.1,59.2,30.15,WNW,293,4.0,9.0,75,0.00,,,0.00,meteohub,2013-07-16 13:44:00,
2013-07-16 09:49:00,80.2,60.6,30.15,WNW,298,1.0,9.0,75,0.00,,,0.00,meteohub,2013-07-16 13:49:00,
2013-07-16 09:54:00,80.2,61.0,30.15,NW,315,2.0,9.0,75,0.00,,,0.00,meteohub,2013-07-16 13:54:00,
2013-07-16 09:59:00,80.4,61.9,30.15,WNW,296,1.0,9.0,74,0.00,,,0.00,meteohub,2013-07-16 13:59:00,
2013-07-16 10:04:00,80.6,62.2,30.15,WNW,298,4.0,7.0,74,0.00,,,0.00,meteohub,2013-07-16 14:04:00,
2013-07-16 10:09:00,80.8,61.7,30.15,WNW,298,1.0,7.0,74,0.00,,,0.00,meteohub,2013-07-16 14:09:00,
2013-07-16 10:11:00,81.0,61.7,30.15,NW,304,0.0,8.0,73,0.00,,,0.00,meteohub,2013-07-16 14:11:00,
2013-07-16 10:16:00,81.0,60.8,30.15,NW,308,2.0,8.0,73,0.00,,,0.00,meteohub,2013-07-16 14:16:00,
2013-07-16 10:21:00,81.1,59.7,30.15,NNW,327,2.0,8.0,72,0.00,,,0.00,meteohub,2013-07-16 14:21:00,
2013-07-16 10:26:00,81.1,59.0,30.15,NW,321,3.0,8.0,72,0.00,,,0.00,meteohub,2013-07-16 14:26:00,
2013-07-16 10:31:00,81.5,58.3,30.15,NW,315,1.0,8.0,72,0.00,,,0.00,meteohub,2013-07-16 14:31:00,
2013-07-16 10:36:00,81.7,57.0,30.15,NW,308,6.0,7.0,71,0.00,,,0.00,meteohub,2013-07-16 14:36:00,
2013-07-16 10:41:00,81.7,56.8,30.14,WNW,303,2.0,8.0,72,0.00,,,0.00,meteohub,2013-07-16 14:41:00,
2013-07-16 10:46:00,82.2,56.3,30.14,WNW,296,5.0,8.0,70,0.00,,,0.00,meteohub,2013-07-16 14:46:00,
2013-07-16 10:51:00,82.4,56.1,30.14,WNW,297,2.0,8.0,70,0.00,,,0.00,meteohub,2013-07-16 14:51:00,
2013-07-16 10:56:00,82.4,55.4,30.15,WNW,292,2.0,8.0,70,0.00,,,0.00,meteohub,2013-07-16 14:56:00,
2013-07-16 11:01:00,82.8,55.4,30.14,WNW,299,1.0,8.0,70,0.00,,,0.00,meteohub,2013-07-16 15:01:00,
2013-07-16 11:06:00,83.3,54.5,30.14,WNW,300,3.0,8.0,68,0.00,,,0.00,meteohub,2013-07-16 15:06:00,
2013-07-16 11:11:00,82.9,54.3,30.14,WNW,296,2.0,6.0,68,0.00,,,0.00,meteohub,2013-07-16 15:11:00,
2013-07-16 11:16:00,82.8,54.3,30.14,West,279,2.0,7.0,69,0.00,,,0.00,meteohub,2013-07-16 15:16:00,
2013-07-16 11:21:00,83.3,54.3,30.14,WNW,290,3.0,7.0,68,0.00,,,0.00,meteohub,2013-07-16 15:21:00,
2013-07-16 11:26:00,83.5,54.3,30.14,WNW,294,3.0,7.0,67,0.00,,,0.00,meteohub,2013-07-16 15:26:00,
2013-07-16 11:31:00,83.8,53.6,30.14,NW,315,1.0,7.0,67,0.00,,,0.00,meteohub,2013-07-16 15:31:00,
2013-07-16 11:36:00,84.2,53.6,30.14,WNW,302,1.0,7.0,66,0.00,,,0.00,meteohub,2013-07-16 15:36:00,
2013-07-16 11:41:00,83.8,53.6,30.14,WNW,291,7.0,7.0,67,0.00,,,0.00,meteohub,2013-07-16 15:41:00,
2013-07-16 11:46:00,83.5,53.6,30.14,WNW,291,8.0,9.0,67,0.00,,,0.00,meteohub,2013-07-16 15:46:00,
2013-07-16 11:51:00,83.5,53.6,30.14,NW,320,3.0,9.0,67,0.00,,,0.00,meteohub,2013-07-16 15:51:00,
2013-07-16 11:56:00,84.2,53.4,30.14,WNW,294,7.0,9.0,66,0.00,,,0.00,meteohub,2013-07-16 15:56:00,
2013-07-16 12:01:00,84.7,53.4,30.14,NW,304,2.0,9.0,65,0.00,,,0.00,meteohub,2013-07-16 16:01:00,
2013-07-16 12:06:00,84.9,53.4,30.14,NW,307,2.0,8.0,65,0.00,,,0.00,meteohub,2013-07-16 16:06:00,
2013-07-16 12:11:00,85.3,53.4,30.14,WNW,296,8.0,8.0,65,0.00,,,0.00,meteohub,2013-07-16 16:11:00,
2013-07-16 12:16:00,84.9,53.4,30.14,WNW,301,4.0,8.0,64,0.00,,,0.00,meteohub,2013-07-16 16:16:00,
2013-07-16 12:21:00,84.9,53.4,30.13,WNW,299,4.0,9.0,64,0.00,,,0.00,meteohub,2013-07-16 16:21:00,
2013-07-16 12:26:00,85.3,53.4,30.13,NW,305,5.0,9.0,64,0.00,,,0.00,meteohub,2013-07-16 16:26:00,
2013-07-16 12:31:00,85.5,53.4,30.13,WNW,302,3.0,10.0,64,0.00,,,0.00,meteohub,2013-07-16 16:31:00,
2013-07-16 12:36:00,86.0,53.4,30.13,WNW,288,5.0,10.0,62,0.00,,,0.00,meteohub,2013-07-16 16:36:00,
2013-07-16 12:41:00,85.8,53.4,30.14,WNW,292,9.0,10.0,62,0.00,,,0.00,meteohub,2013-07-16 16:41:00,
2013-07-16 12:46:00,85.6,53.6,30.13,WNW,290,6.0,11.0,62,0.00,,,0.00,meteohub,2013-07-16 16:46:00,
2013-07-16 12:51:00,85.6,53.6,30.13,WNW,291,9.0,12.0,62,0.00,,,0.00,meteohub,2013-07-16 16:51:00,
2013-07-16 12:56:00,85.8,53.6,30.13,NW,320,8.0,12.0,61,0.00,,,0.00,meteohub,2013-07-16 16:56:00,
2013-07-16 13:01:00,86.4,53.6,30.13,West,281,7.0,12.0,61,0.00,,,0.00,meteohub,2013-07-16 17:01:00,
2013-07-16 13:06:00,86.5,53.6,30.13,WNW,300,4.0,11.0,61,0.00,,,0.00,meteohub,2013-07-16 17:06:00,
2013-07-16 13:11:00,86.7,53.6,30.13,NW,308,8.0,10.0,61,0.00,,,0.00,meteohub,2013-07-16 17:11:00,
2013-07-16 13:16:00,86.9,53.6,30.13,NW,308,6.0,11.0,60,0.00,,,0.00,meteohub,2013-07-16 17:16:00,
2013-07-16 13:21:00,87.1,54.3,30.13,WNW,288,7.0,11.0,60,0.00,,,0.00,meteohub,2013-07-16 17:21:00,
2013-07-16 13:26:00,87.3,54.3,30.13,WNW,297,4.0,11.0,60,0.00,,,0.00,meteohub,2013-07-16 17:26:00,
2013-07-16 13:31:00,88.0,54.3,30.12,WNW,292,9.0,9.0,58,0.00,,,0.00,meteohub,2013-07-16 17:31:00,
2013-07-16 13:36:00,88.3,54.3,30.12,WNW,297,6.0,9.0,57,0.00,,,0.00,meteohub,2013-07-16 17:36:00,
2013-07-16 13:41:00,89.1,54.3,30.12,NW,317,5.0,9.0,56,0.00,,,0.00,meteohub,2013-07-16 17:41:00,
2013-07-16 13:46:00,88.5,54.5,30.12,WNW,286,8.0,9.0,57,0.00,,,0.00,meteohub,2013-07-16 17:46:00,
2013-07-16 13:51:00,88.2,54.5,30.12,WNW,294,8.0,9.0,57,0.00,,,0.00,meteohub,2013-07-16 17:51:00,
2013-07-16 13:56:00,88.2,54.5,30.12,WNW,300,5.0,9.0,57,0.00,,,0.00,meteohub,2013-07-16 17:56:00,
2013-07-16 14:01:00,88.5,54.7,30.12,WNW,303,7.0,9.0,57,0.00,,,0.00,meteohub,2013-07-16 18:01:00,
2013-07-16 14:06:00,88.7,54.7,30.12,WNW,291,6.0,9.0,57,0.00,,,0.00,meteohub,2013-07-16 18:06:00,
2013-07-16 14:11:00,88.5,54.7,30.12,WNW,282,6.0,9.0,56,0.00,,,0.00,meteohub,2013-07-16 18:11:00,
2013-07-16 14:16:00,88.7,54.9,30.12,WNW,288,4.0,9.0,57,0.00,,,0.00,meteohub,2013-07-16 18:16:00,
2013-07-16 14:21:00,89.1,54.9,30.12,WNW,290,6.0,8.0,56,0.00,,,0.00,meteohub,2013-07-16 18:21:00,
2013-07-16 14:26:00,88.9,54.9,30.12,WNW,287,7.0,8.0,56,0.00,,,0.00,meteohub,2013-07-16 18:26:00,
2013-07-16 14:31:00,88.3,55.0,30.12,NW,306,5.0,9.0,57,0.00,,,0.00,meteohub,2013-07-16 18:31:00,
2013-07-16 14:36:00,88.3,55.0,30.12,NW,307,7.0,9.0,57,0.00,,,0.00,meteohub,2013-07-16 18:36:00,
2013-07-16 14:41:00,88.2,55.2,30.12,WNW,298,7.0,10.0,58,0.00,,,0.00,meteohub,2013-07-16 18:41:00,
2013-07-16 14:46:00,88.3,55.2,30.12,WNW,299,3.0,10.0,57,0.00,,,0.00,meteohub,2013-07-16 18:46:00,
2013-07-16 14:51:00,88.0,55.2,30.12,WNW,296,4.0,10.0,58,0.00,,,0.00,meteohub,2013-07-16 18:51:00,
2013-07-16 14:56:00,88.0,55.4,30.12,WNW,300,6.0,10.0,57,0.00,,,0.00,meteohub,2013-07-16 18:56:00,
2013-07-16 15:01:00,87.6,55.4,30.12,WNW,300,7.0,10.0,57,0.00,,,0.00,meteohub,2013-07-16 19:01:00,
2013-07-16 15:06:00,87.3,55.6,30.12,WNW,283,6.0,10.0,58,0.00,,,0.00,meteohub,2013-07-16 19:06:00,
2013-07-16 15:11:00,87.1,55.6,30.12,NW,314,2.0,10.0,60,0.00,,,0.00,meteohub,2013-07-16 19:11:00,
2013-07-16 15:16:00,87.4,55.6,30.11,NW,315,7.0,10.0,57,0.00,,,0.00,meteohub,2013-07-16 19:16:00,
2013-07-16 15:21:00,87.3,55.8,30.12,WNW,298,4.0,9.0,58,0.00,,,0.00,meteohub,2013-07-16 19:21:00,
2013-07-16 15:26:00,86.7,55.8,30.11,NW,306,5.0,10.0,59,0.00,,,0.00,meteohub,2013-07-16 19:26:00,
2013-07-16 15:31:00,87.1,55.0,30.11,WNW,299,4.0,10.0,58,0.00,,,0.00,meteohub,2013-07-16 19:31:00,
2013-07-16 15:37:00,87.4,55.0,30.11,WNW,303,7.0,8.0,57,0.00,,,0.00,meteohub,2013-07-16 19:37:00,
2013-07-16 15:42:00,87.6,55.2,30.11,NW,323,6.0,9.0,56,0.00,,,0.00,meteohub,2013-07-16 19:42:00,
2013-07-16 15:47:00,87.4,55.2,30.11,WNW,303,4.0,9.0,57,0.00,,,0.00,meteohub,2013-07-16 19:47:00,
2013-07-16 15:52:00,87.6,55.2,30.11,NW,325,4.0,9.0,56,0.00,,,0.00,meteohub,2013-07-16 19:52:00,
2013-07-16 15:57:00,87.4,55.2,30.11,NW,319,3.0,9.0,56,0.00,,,0.00,meteohub,2013-07-16 19:57:00,
2013-07-16 16:02:00,87.3,55.4,30.11,NW,318,8.0,8.0,56,0.00,,,0.00,meteohub,2013-07-16 20:02:00,
2013-07-16 16:07:00,87.3,55.4,30.11,NW,317,4.0,8.0,56,0.00,,,0.00,meteohub,2013-07-16 20:07:00,
2013-07-16 16:12:00,87.1,55.4,30.11,NW,312,3.0,9.0,56,0.00,,,0.00,meteohub,2013-07-16 20:12:00,
2013-07-16 16:17:00,87.4,55.6,30.11,NW,325,3.0,9.0,56,0.00,,,0.00,meteohub,2013-07-16 20:17:00,
2013-07-16 16:22:00,88.0,55.6,30.11,NW,319,4.0,8.0,54,0.00,,,0.00,meteohub,2013-07-16 20:22:00,
2013-07-16 16:27:00,88.5,55.6,30.11,NW,319,4.0,7.0,54,0.00,,,0.00,meteohub,2013-07-16 20:27:00,
2013-07-16 16:32:00,88.5,55.6,30.11,NW,308,4.0,7.0,55,0.00,,,0.00,meteohub,2013-07-16 20:32:00,
2013-07-16 16:37:00,88.3,55.8,30.11,NW,304,3.0,7.0,55,0.00,,,0.00,meteohub,2013-07-16 20:37:00,
2013-07-16 16:42:00,88.3,55.8,30.11,NW,304,1.0,7.0,55,0.00,,,0.00,meteohub,2013-07-16 20:42:00,
2013-07-16 16:47:00,88.2,55.8,30.11,WNW,292,4.0,7.0,54,0.00,,,0.00,meteohub,2013-07-16 20:47:00,
2013-07-16 16:52:00,87.4,55.9,30.11,WNW,292,2.0,7.0,56,0.00,,,0.00,meteohub,2013-07-16 20:52:00,
2013-07-16 16:57:00,87.1,55.9,30.11,West,279,5.0,7.0,58,0.00,,,0.00,meteohub,2013-07-16 20:57:00,
2013-07-16 17:02:00,87.1,55.9,30.11,WNW,296,4.0,9.0,58,0.00,,,0.00,meteohub,2013-07-16 21:02:00,
2013-07-16 17:07:00,87.1,55.9,30.10,WNW,285,4.0,9.0,57,0.00,,,0.00,meteohub,2013-07-16 21:07:00,
2013-07-16 17:12:00,87.4,56.1,30.10,WNW,288,5.0,9.0,57,0.00,,,0.00,meteohub,2013-07-16 21:12:00,
2013-07-16 17:17:00,87.6,56.1,30.10,WNW,298,8.0,9.0,57,0.00,,,0.00,meteohub,2013-07-16 21:17:00,
2013-07-16 17:22:00,87.4,56.1,30.10,WNW,284,4.0,10.0,56,0.00,,,0.00,meteohub,2013-07-16 21:22:00,
2013-07-16 17:27:00,88.2,56.1,30.10,West,280,4.0,10.0,55,0.00,,,0.00,meteohub,2013-07-16 21:27:00,
2013-07-16 17:32:00,88.0,56.1,30.10,West,280,8.0,10.0,54,0.00,,,0.00,meteohub,2013-07-16 21:32:00,
2013-07-16 17:37:00,87.8,56.1,30.10,WNW,296,4.0,10.0,55,0.00,,,0.00,meteohub,2013-07-16 21:37:00,
2013-07-16 17:42:00,88.0,56.1,30.10,WNW,293,7.0,10.0,54,0.00,,,0.00,meteohub,2013-07-16 21:42:00,
2013-07-16 17:47:00,87.8,56.1,30.10,West,276,2.0,10.0,55,0.00,,,0.00,meteohub,2013-07-16 21:47:00,
2013-07-16 17:52:00,87.6,56.1,30.10,West,279,5.0,9.0,55,0.00,,,0.00,meteohub,2013-07-16 21:52:00,
2013-07-16 17:57:00,87.8,55.6,30.10,WNW,282,6.0,9.0,55,0.00,,,0.00,meteohub,2013-07-16 21:57:00,
2013-07-16 18:02:00,87.4,55.6,30.10,WNW,297,5.0,9.0,55,0.00,,,0.00,meteohub,2013-07-16 22:02:00,
2013-07-16 18:07:00,86.9,55.6,30.10,WNW,286,5.0,9.0,56,0.00,,,0.00,meteohub,2013-07-16 22:07:00,
2013-07-16 18:12:00,86.5,55.6,30.10,WNW,291,7.0,9.0,56,0.00,,,0.00,meteohub,2013-07-16 22:12:00,
2013-07-16 18:17:00,86.4,55.6,30.10,WNW,284,4.0,9.0,57,0.00,,,0.00,meteohub,2013-07-16 22:17:00,
2013-07-16 18:22:00,86.2,55.6,30.10,WNW,293,4.0,9.0,58,0.00,,,0.00,meteohub,2013-07-16 22:22:00,
2013-07-16 18:27:00,86.4,55.6,30.10,WNW,290,6.0,9.0,59,0.00,,,0.00,meteohub,2013-07-16 22:27:00,
2013-07-16 18:32:00,86.4,55.6,30.10,WNW,288,3.0,9.0,59,0.00,,,0.00,meteohub,2013-07-16 22:32:00,
2013-07-16 18:37:00,86.5,54.9,30.10,WNW,290,3.0,8.0,59,0.00,,,0.00,meteohub,2013-07-16 22:37:00,
2013-07-16 18:42:00,86.2,54.9,30.10,WNW,282,4.0,8.0,60,0.00,,,0.00,meteohub,2013-07-16 22:42:00,
2013-07-16 18:48:00,85.5,54.9,30.10,WNW,283,4.0,6.0,61,0.00,,,0.00,meteohub,2013-07-16 22:48:00,
2013-07-16 18:53:00,85.3,54.9,30.10,West,280,4.0,6.0,61,0.00,,,0.00,meteohub,2013-07-16 22:53:00,
2013-07-16 18:58:00,85.5,54.7,30.10,West,276,4.0,6.0,61,0.00,,,0.00,meteohub,2013-07-16 22:58:00,
2013-07-16 19:03:00,85.6,54.7,30.10,West,280,4.0,7.0,60,0.00,,,0.00,meteohub,2013-07-16 23:03:00,
2013-07-16 19:08:00,85.6,54.7,30.10,West,279,3.0,7.0,60,0.00,,,0.00,meteohub,2013-07-16 23:08:00,
2013-07-16 19:13:00,85.6,54.7,30.10,West,272,2.0,7.0,59,0.00,,,0.00,meteohub,2013-07-16 23:13:00,
2013-07-16 19:18:00,86.2,54.7,30.11,West,269,4.0,8.0,58,0.00,,,0.00,meteohub,2013-07-16 23:18:00,
2013-07-16 19:23:00,86.2,54.7,30.11,WNW,282,4.0,8.0,58,0.00,,,0.00,meteohub,2013-07-16 23:23:00,
2013-07-16 19:28:00,85.8,54.5,30.11,WNW,283,3.0,7.0,58,0.00,,,0.00,meteohub,2013-07-16 23:28:00,
2013-07-16 19:33:00,85.6,54.0,30.11,WNW,283,4.0,7.0,58,0.00,,,0.00,meteohub,2013-07-16 23:33:00,
2013-07-16 19:38:00,85.5,54.0,30.11,West,281,4.0,6.0,59,0.00,,,0.00,meteohub,2013-07-16 23:38:00,
2013-07-16 19:43:00,84.9,53.8,30.11,WNW,283,4.0,6.0,59,0.00,,,0.00,meteohub,2013-07-16 23:43:00,
2013-07-16 19:48:00,84.2,53.8,30.11,WNW,285,3.0,6.0,60,0.00,,,0.00,meteohub,2013-07-16 23:48:00,
2013-07-16 19:53:00,83.8,53.8,30.11,WNW,286,4.0,6.0,61,0.00,,,0.00,meteohub,2013-07-16 23:53:00,
2013-07-16 19:58:00,83.7,53.6,30.11,WNW,284,5.0,6.0,61,0.00,,,0.00,meteohub,2013-07-16 23:58:00,
2013-07-16 20:03:00,83.5,53.6,30.11,West,279,3.0,6.0,62,0.00,,,0.00,meteohub,2013-07-17 00:03:00,
2013-07-16 20:08:00,83.3,53.4,30.11,WNW,283,2.0,6.0,62,0.00,,,0.00,meteohub,2013-07-17 00:08:00,
2013-07-16 20:13:00,83.1,53.4,30.12,WNW,283,5.0,6.0,62,0.00,,,0.00,meteohub,2013-07-17 00:13:00,
2013-07-16 20:18:00,83.1,52.5,30.12,WNW,282,4.0,6.0,62,0.00,,,0.00,meteohub,2013-07-17 00:18:00,
2013-07-16 20:23:00,83.1,52.5,30.12,WNW,283,3.0,6.0,62,0.00,,,0.00,meteohub,2013-07-17 00:23:00,
2013-07-16 20:28:00,83.3,52.3,30.12,WNW,284,4.0,6.0,61,0.00,,,0.00,meteohub,2013-07-17 00:28:00,
2013-07-16 20:33:00,83.1,52.2,30.12,WNW,286,0.0,6.0,61,0.00,,,0.00,meteohub,2013-07-17 00:33:00,
2013-07-16 20:38:00,83.1,52.2,30.12,WNW,286,0.0,6.0,61,0.00,,,0.00,meteohub,2013-07-17 00:38:00,
2013-07-16 20:43:00,83.3,52.2,30.12,WNW,288,2.0,5.0,60,0.00,,,0.00,meteohub,2013-07-17 00:43:00,
2013-07-16 20:48:00,83.1,52.2,30.12,WNW,289,3.0,6.0,60,0.00,,,0.00,meteohub,2013-07-17 00:48:00,
2013-07-16 20:53:00,83.1,52.0,30.12,WNW,289,3.0,6.0,60,0.00,,,0.00,meteohub,2013-07-17 00:53:00,
2013-07-16 20:58:00,83.1,52.0,30.12,WNW,291,4.0,6.0,61,0.00,,,0.00,meteohub,2013-07-17 00:58:00,
2013-07-16 21:03:00,82.9,51.8,30.12,WNW,291,4.0,6.0,61,0.00,,,0.00,meteohub,2013-07-17 01:03:00,
2013-07-16 21:08:00,82.8,51.6,30.12,WNW,288,3.0,6.0,61,0.00,,,0.00,meteohub,2013-07-17 01:08:00,
2013-07-16 21:13:00,82.8,51.6,30.13,WNW,288,4.0,7.0,61,0.00,,,0.00,meteohub,2013-07-17 01:13:00,
2013-07-16 21:18:00,82.8,51.4,30.13,WNW,286,3.0,8.0,61,0.00,,,0.00,meteohub,2013-07-17 01:18:00,
2013-07-16 21:23:00,82.6,51.4,30.13,WNW,291,4.0,8.0,61,0.00,,,0.00,meteohub,2013-07-17 01:23:00,
2013-07-16 21:28:00,82.0,51.3,30.13,WNW,290,4.0,8.0,62,0.00,,,0.00,meteohub,2013-07-17 01:28:00,
2013-07-16 21:33:00,81.9,51.3,30.13,WNW,294,4.0,9.0,64,0.00,,,0.00,meteohub,2013-07-17 01:33:00,
2013-07-16 21:38:00,81.7,51.1,30.13,WNW,288,4.0,9.0,64,0.00,,,0.00,meteohub,2013-07-17 01:38:00,
2013-07-16 21:43:00,81.7,51.1,30.13,WNW,287,4.0,9.0,65,0.00,,,0.00,meteohub,2013-07-17 01:43:00,
2013-07-16 21:48:00,81.3,51.6,30.13,WNW,283,5.0,7.0,66,0.00,,,0.00,meteohub,2013-07-17 01:48:00,
2013-07-16 21:54:00,81.3,51.6,30.13,WNW,293,3.0,9.0,67,0.00,,,0.00,meteohub,2013-07-17 01:54:00,
2013-07-16 21:59:00,81.1,51.4,30.13,WNW,291,7.0,9.0,68,0.00,,,0.00,meteohub,2013-07-17 01:59:00,
2013-07-16 22:04:00,81.1,51.4,30.13,WNW,294,6.0,8.0,68,0.00,,,0.00,meteohub,2013-07-17 02:04:00,
2013-07-16 22:09:00,80.8,51.3,30.13,WNW,288,4.0,9.0,69,0.00,,,0.00,meteohub,2013-07-17 02:09:00,
2013-07-16 22:14:00,80.6,51.3,30.14,WNW,288,3.0,9.0,71,0.00,,,0.00,meteohub,2013-07-17 02:14:00,
2013-07-16 22:19:00,80.6,51.1,30.14,WNW,291,7.0,9.0,71,0.00,,,0.00,meteohub,2013-07-17 02:19:00,
2013-07-16 22:24:00,80.6,51.1,30.14,WNW,293,8.0,9.0,70,0.00,,,0.00,meteohub,2013-07-17 02:24:00,
2013-07-16 22:29:00,80.4,51.1,30.14,WNW,290,6.0,9.0,71,0.00,,,0.00,meteohub,2013-07-17 02:29:00,
2013-07-16 22:34:00,80.2,51.6,30.14,WNW,292,4.0,8.0,72,0.00,,,0.00,meteohub,2013-07-17 02:34:00,
2013-07-16 22:39:00,79.9,51.4,30.14,WNW,294,3.0,8.0,73,0.00,,,0.00,meteohub,2013-07-17 02:39:00,
2013-07-16 22:44:00,80.1,51.4,30.14,WNW,286,6.0,8.0,72,0.00,,,0.00,meteohub,2013-07-17 02:44:00,
2013-07-16 22:49:00,80.4,51.3,30.14,WNW,288,2.0,8.0,70,0.00,,,0.00,meteohub,2013-07-17 02:49:00,
2013-07-16 22:54:00,80.8,51.3,30.14,WNW,286,3.0,10.0,68,0.00,,,0.00,meteohub,2013-07-17 02:54:00,
2013-07-16 22:59:00,80.8,51.3,30.14,WNW,294,4.0,10.0,70,0.00,,,0.00,meteohub,2013-07-17 02:59:00,
2013-07-16 23:04:00,80.4,50.4,30.14,WNW,294,2.0,10.0,71,0.00,,,0.00,meteohub,2013-07-17 03:04:00,
2013-07-16 23:09:00,80.1,50.4,30.14,WNW,296,2.0,8.0,73,0.00,,,0.00,meteohub,2013-07-17 03:09:00,
2013-07-16 23:14:00,79.9,50.2,30.14,WNW,298,1.0,7.0,74,0.00,,,0.00,meteohub,2013-07-17 03:14:00,
2013-07-16 23:19:00,79.5,49.5,30.14,WNW,298,3.0,5.0,76,0.00,,,0.00,meteohub,2013-07-17 03:19:00,
2013-07-16 23:24:00,79.5,49.3,30.14,WNW,303,4.0,5.0,76,0.00,,,0.00,meteohub,2013-07-17 03:24:00,
2013-07-16 23:29:00,79.2,49.8,30.14,WNW,301,4.0,6.0,78,0.00,,,0.00,meteohub,2013-07-17 03:29:00,
2013-07-16 23:34:00,79.0,49.8,30.14,WNW,302,2.0,6.0,79,0.00,,,0.00,meteohub,2013-07-17 03:34:00,
2013-07-16 23:39:00,78.6,49.6,30.14,WNW,302,4.0,6.0,81,0.00,,,0.00,meteohub,2013-07-17 03:39:00,
2013-07-16 23:44:00,78.4,49.6,30.14,WNW,300,4.0,6.0,82,0.00,,,0.00,meteohub,2013-07-17 03:44:00,
2013-07-16 23:49:00,78.3,49.5,30.14,WNW,301,1.0,6.0,83,0.00,,,0.00,meteohub,2013-07-17 03:49:00,
2013-07-16 23:54:00,78.1,49.5,30.14,WNW,301,2.0,6.0,85,0.00,,,0.00,meteohub,2013-07-17 03:54:00,
2013-07-16 23:59:00,78.1,49.5,30.14,NW,304,2.0,6.0,86,0.00,,,0.00,meteohub,2013-07-17 03:59:00,